Flag for U.S.A. Weather past 2 weeks in Sacramento, California, U.S.A.

Now
36 °F

Fog.


Feels Like: 36 °F
Forecast: 36 / 54 °F
Wind: No wind

Location: Sacramento Executive Airport

Current Time: Dec 28, 2014 at 7:24:27 AM

Latest Report: Dec 28, 2014 at 6:53 AM


Visibility: 1 mi

Pressure: 30.33 "Hg

Humidity: 92%

Dew point: 34 °F

Location of SacramentoLocation

Historic Weather in Sacramento — Graph

°F

Sacramento temperature yesterday

Maximum temperature yesterday: 54 °F (at 2:53 PM)
Minimum temperature yesterday: 34 °F (at 7:53 AM)
Average temperature yesterday: 43 °F

Past Weeks' High & Low Weather Summary

 TemperatureHumidityPressure
High65 °F (Dec 21, 2:53 PM)100% (Dec 13, 8:02 PM)30.41 "Hg (Dec 13, 8:02 PM)
Low34 °F (Dec 27, 7:53 AM)37% (Dec 26, 1:53 PM)29.83 "Hg (Dec 16, 4:53 PM)
Average52 °F81%30.13 "Hg
* Reported Dec 13 5:01 AM — Dec 28 5:53 AM, Sacramento, Weather by CustomWeather, © 2014

Note: Actual official high and low records may vary slightly from our data, if they occured in-between our weather recording intervals... More about our weather records

Advertising

Sacramento weather history for previous 24 hours

 ConditionsComfort  
Time TempWeatherWind HumidityBarometerVisibility
5:53 AM
Dec 28
38 °FFog.No wind93%30.33 "Hg2 mi
4:53 AM38 °FFog.3 mph93%30.33 "Hg4 mi
3:53 AM38 °FFog.No wind93%30.33 "Hg3 mi
2:53 AM41 °FClear.3 mph89%30.37 "Hg7 mi
1:53 AM40 °FFog.No wind93%30.37 "Hg4 mi
12:53 AM40 °FFog.No wind89%30.37 "Hg5 mi
11:53 PM
Dec 27
41 °FFog.No wind86%30.38 "Hg6 mi
10:53 PM40 °FFog.No wind89%30.38 "Hg5 mi
9:53 PM41 °FFog.No wind86%30.38 "Hg4 mi
8:53 PM41 °FFog.No wind86%30.39 "Hg6 mi
7:53 PM44 °FClear.No wind79%30.39 "Hg8 mi
6:53 PM45 °FClear.No wind80%30.37 "Hg8 mi
5:53 PM48 °FClear.3 mph71%30.38 "Hg10 mi
4:53 PM50 °FClear.3 mph66%30.36 "Hg10 mi
3:53 PM53 °FSunny.No wind56%30.34 "Hg10 mi
2:53 PM54 °FSunny.3 mph55%30.35 "Hg10 mi
1:53 PM53 °FSunny.3 mph56%30.35 "Hg10 mi
12:53 PM52 °FSunny.6 mph55%30.36 "Hg10 mi
11:53 AM50 °FSunny.5 mph57%30.38 "Hg10 mi
10:53 AM46 °FSunny.6 mph68%30.41 "Hg10 mi
9:53 AM44 °FSunny.No wind71%30.40 "Hg10 mi
8:53 AM41 °FSunny.No wind76%30.37 "Hg10 mi
7:53 AM34 °FSunny.No wind88%30.34 "Hg7 mi
Weather by CustomWeather, © 2014

See weather overviewHow to use our weather pages